DW2258 Weather Reports


time (UTC)temp
C
wind
direction
speed
KPH
gust
KPH
rain 1hr
cm
rain 24hr
cm
rain mn
cm
humidity
%
barometer
mb
20260505153146 9 226 16.1 27.4 0.00 0.00 0.00 87 1010.0
20260505151648 9 228 12.9 19.3 0.00 0.00 0.00 87 1010.1
20260505150207 10 241 12.9 29.0 0.00 0.00 0.00 85 1010.2
20260505140131 9 234 16.1 25.7 0.00 0.00 0.00 86 1010.2
20260505130134 8 226 17.7 33.8 0.00 0.00 0.00 88 1009.9
20260505124634 8 242 19.3 33.8 0.00 0.00 0.00 89 1009.9
20260505123133 8 193 16.1 30.6 0.00 0.00 0.00 89 1010.0
20260505121653 7 233 17.7 29.0 0.00 0.00 0.00 89 1009.9
20260505120131 7 214 14.5 32.2 0.00 0.00 0.00 89 1010.0
20260505114636 7 211 12.9 24.1 0.00 0.00 0.00 89 1009.8
20260505113136 7 228 16.1 30.6 0.00 0.00 0.00 89 1009.7
20260505111657 7 228 17.7 25.7 0.00 0.00 0.00 89 1009.7
20260505110135 7 212 17.7 27.4 0.00 0.00 0.00 89 1009.7
20260505101640 7 233 24.1 35.4 0.00 0.00 0.00 89 1009.4
20260505100159 7 215 19.3 32.2 0.00 0.00 0.00 90 1009.2
20260505094637 6 231 17.7 30.6 0.00 0.00 0.00 90 1009.1
20260505093159 6 226 16.1 27.4 0.00 0.00 0.00 90 1009.1
20260505091638 6 244 16.1 25.7 0.00 0.00 0.00 90 1009.1
20260505090137 6 216 19.3 32.2 0.00 0.00 0.00 90 1009.1
20260505084656 6 243 17.7 30.6 0.00 0.00 0.00 89 1009.1
20260505083133 7 225 14.5 25.7 0.00 0.00 0.00 89 1009.2
20260505081638 7 248 14.5 27.4 0.00 0.00 0.00 89 1009.0
20260505080138 7 215 14.5 30.6 0.00 0.00 0.00 87 1009.0
20260505074637 7 220 20.9 33.8 0.00 0.00 0.00 87 1008.9
20260505073138 7 245 27.4 37.0 0.00 0.00 0.00 87 1008.8
20260505071640 7 242 22.5 30.6 0.00 0.00 0.00 88 1008.7
20260505070141 7 218 24.1 32.2 0.00 0.00 0.00 88 1008.7
20260505064643 7 228 25.7 37.0 0.00 0.00 0.00 88 1008.8
20260505063144 7 223 25.7 37.0 0.00 0.00 0.00 88 1008.7
20260505061628 7 217 20.9 33.8 0.00 0.00 0.00 88 1008.7
20260505060130 7 207 25.7 37.0 0.00 0.00 0.00 87 1008.7
20260505054630 7 232 24.1 40.2 0.00 0.00 0.00 87 1008.5
20260505053131 7 247 25.7 37.0 0.00 0.00 0.00 86 1008.4
20260505051653 7 238 24.1 40.2 0.00 0.00 0.00 87 1008.3
20260505050134 7 215 22.5 35.4 0.00 0.00 0.00 87 1008.3
20260505041635 7 231 17.7 29.0 0.00 0.00 0.00 87 1008.5
20260505040134 7 228 11.3 19.3 0.00 0.00 0.00 87 1008.5
20260505034639 7 227 11.3 17.7 0.00 0.00 0.00 86 1008.6
20260505033140 7 247 3.2 12.9 0.00 0.00 0.00 84 1008.5
20260505031640 7 251 3.2 12.9 0.00 0.00 0.00 84 1008.7
20260505030139 7 235 8.0 12.9 0.00 0.00 0.00 84 1008.7
20260505024642 7 228 6.4 11.3 0.00 0.03 0.00 86 1008.7
20260505023143 7 217 4.8 9.7 0.00 0.03 0.00 86 1008.6
20260505021643 7 210 4.8 14.5 0.00 0.03 0.00 86 1008.5
20260505020141 7 218 11.3 19.3 0.00 0.03 0.00 86 1008.4
20260505014644 7 236 12.9 17.7 0.00 0.03 0.00 85 1008.3
20260505013144 7 225 11.3 24.1 0.00 0.03 0.00 85 1008.2
20260505011644 7 220 11.3 17.7 0.00 0.03 0.00 86 1008.1
20260505010142 7 235 11.3 17.7 0.00 0.03 0.00 86 1007.9
20260505004628 7 241 9.7 19.3 0.00 0.03 0.00 85 1007.8
20260505003129 7 258 12.9 25.7 0.00 0.03 0.00 85 1007.6
20260505001628 7 233 14.5 24.1 0.00 0.03 0.00 87 1007.3
20260505000128 7 211 14.5 24.1 0.00 0.03 0.00 86 1007.1
20260504234628 7 128 11.3 17.7 0.00 0.03 0.00 87 1006.9
20260504233152 7 185 11.3 19.3 0.00 0.03 0.00 87 1006.6
20260504231649 7 211 9.7 19.3 0.00 0.03 0.00 86 1006.5
20260504230149 7 235 9.7 19.3 0.00 0.03 0.00 84 1006.2
20260504224628 8 229 9.7 16.1 0.00 0.03 0.00 83 1006.2
20260504223130 8 227 12.9 25.7 0.00 0.03 0.00 82 1006.2
20260504221633 8 171 8.0 25.7 0.00 0.03 0.00 81 1006.0
20260504220133 8 218 11.3 22.5 0.00 0.03 0.00 81 1005.8
20260504214654 9 206 12.9 29.0 0.00 0.03 0.00 80 1005.7
20260504213134 9 195 12.9 30.6 0.00 0.03 0.00 79 1005.8
20260504211635 9 242 14.5 25.7 0.00 0.03 0.00 79 1005.6
20260504210138 9 210 12.9 24.1 0.00 0.03 0.00 80 1005.6
20260504204700 9 233 12.9 19.3 0.00 0.08 0.00 79 1005.6
20260504203159 9 214 9.7 17.7 0.00 0.08 0.00 80 1005.4
20260504201638 9 250 12.9 19.3 0.00 0.08 0.00 78 1005.6
20260504200140 10 220 9.7 22.5 0.00 0.08 0.00 76 1005.5
20260504194643 10 213 14.5 24.1 0.00 0.10 0.00 77 1005.4
20260504193142 9 219 14.5 22.5 0.00 0.10 0.00 79 1005.7
20260504191642 8 239 12.9 24.1 0.00 0.10 0.00 80 1005.9
20260504190204 8 234 17.7 24.1 0.00 0.10 0.00 79 1006.2
20260504184627 8 247 17.7 25.7 0.00 0.18 0.00 81 1006.3
20260504183206 7 233 16.1 25.7 0.00 0.18 0.00 84 1006.3
20260504181626 7 245 22.5 37.0 0.00 0.18 0.00 84 1006.0
20260504180206 7 230 17.7 27.4 0.00 0.18 0.00 85 1005.8
20260504174645 7 228 17.7 30.6 0.00 0.30 0.00 84 1005.9
20260504173128 7 226 17.7 30.6 0.00 0.30 0.00 83 1005.8
20260504171627 8 241 14.5 25.7 0.00 0.30 0.00 82 1005.6
20260504170127 7 218 17.7 35.4 0.00 0.30 0.00 83 1005.6
20260504160130 8 207 11.3 17.7 0.00 0.43 0.00 81 1006.0